Voltar ao catálogo

CZ-4B DEB

AtivoLEO
NORAD 40531·DEBRIS·🇨🇳 China

Lançado Oct 25, 2013 de Jiuquan Satellite Launch Center

Loading…

Próximas Passagens (próximas 24 horas)

TLE

AtualizadoSource: Space-Track

Época: Sep 13, 2026, 04:12 UTC

1 40531U 13057D   26256.17529307  .00001936  00000-0  33706-3 0  9995
2 40531  74.9656  75.6511 0179366  45.0153 316.5394 14.58573471604643

Acompanhe CZ-4B DEB em tempo real com AllMySat

Download on the App Store